timestamp,surface_pressure_avg,surface_temp_avg,battery_voltage,lat,long
2019-11-27 00:09:01+00:00,364.7345,5.9,12.81,47.84626,-54.09684
2019-11-27 00:19:01+00:00,361.5363,5.9,12.81,47.84626,-54.09684
2019-11-27 00:29:01+00:00,357.0779,5.9,12.81,47.84626,-54.09684
2019-11-27 00:39:01+00:00,354.1562,5.9,12.81,47.84626,-54.09684
2019-11-27 00:49:01+00:00,351.103,5.9,12.81,47.84626,-54.09684
2019-11-27 00:59:01+00:00,347.7063,5.9,12.81,47.84626,-54.09684
2019-11-27 01:09:01+00:00,341.4579,5.9,12.81,47.84626,-54.09684
2019-11-27 01:19:01+00:00,339.1697,5.95,12.81,47.84626,-54.09684
2019-11-27 01:29:01+00:00,333.7013,5.95,12.81,47.84626,-54.09684
2019-11-27 01:39:01+00:00,326.753,5.96,12.81,47.84626,-54.09684
2019-11-27 01:49:01+00:00,319.5264,5.97,12.81,47.84626,-54.09684
2019-11-27 01:59:01+00:00,314.123,5.95,12.81,47.84626,-54.09684
2019-11-27 02:09:01+00:00,309.623,5.9,12.81,47.84626,-54.09684
2019-11-27 02:19:01+00:00,301.6913,5.9,12.73,47.84626,-54.09684
2019-11-27 02:29:01+00:00,289.5097,5.9,12.73,47.84626,-54.09684
2019-11-27 02:39:01+00:00,280.5697,5.9,12.73,47.84626,-54.09684
2019-11-27 02:49:01+00:00,273.3781,5.9,12.73,47.84626,-54.09684
2019-11-27 02:59:01+00:00,262.8664,5.9,12.73,47.84626,-54.09684
2019-11-27 03:09:01+00:00,252.0381,5.9,12.73,47.84626,-54.09684
2019-11-27 03:19:01+00:00,245.1331,5.91,12.73,47.84626,-54.09684
2019-11-27 03:29:01+00:00,236.2531,5.93,12.73,47.84626,-54.09684
2019-11-27 03:39:01+00:00,224.8881,5.95,12.73,47.84626,-54.09684
2019-11-27 03:49:01+00:00,215.9431,5.96,12.73,47.84626,-54.09684
2019-11-27 03:59:01+00:00,209.5147,5.97,12.73,47.84626,-54.09684
2019-11-27 04:09:01+00:00,202.9198,5.97,12.73,47.84626,-54.09684
2019-11-27 04:19:01+00:00,197.0664,5.98,12.73,47.84626,-54.09684
2019-11-27 04:29:01+00:00,193.9398,5.99,12.73,47.84626,-54.09684
2019-11-27 04:39:01+00:00,191.6748,5.99,12.73,47.84626,-54.09684
2019-11-27 04:49:01+00:00,186.7814,5.99,12.73,47.84626,-54.09684
2019-11-27 04:59:01+00:00,184.4031,5.98,12.73,47.84626,-54.09684
2019-11-27 05:09:01+00:00,184.6781,5.97,12.73,47.84626,-54.09684
2019-11-27 05:19:01+00:00,183.3715,5.92,12.73,47.84626,-54.09684
2019-11-27 05:29:01+00:00,182.3648,5.9,12.73,47.84626,-54.09684
2019-11-27 05:39:01+00:00,183.6698,5.89,12.73,47.84626,-54.09684
2019-11-27 05:49:01+00:00,184.8015,5.88,12.73,47.84626,-54.09684
2019-11-27 05:59:01+00:00,185.8931,5.86,12.73,47.84626,-54.09684
2019-11-27 06:09:01+00:00,188.5714,5.86,12.73,47.84626,-54.09684
2019-11-27 06:19:01+00:00,189.8398,5.87,12.73,47.84626,-54.09684
2019-11-27 06:29:01+00:00,192.4331,5.87,12.73,47.84626,-54.09684
2019-11-27 06:39:01+00:00,196.4898,5.87,12.73,47.84626,-54.09684
2019-11-27 06:49:01+00:00,199.0048,5.89,12.73,47.84626,-54.09684
2019-11-27 06:59:01+00:00,201.7948,5.9,12.73,47.84626,-54.09684
2019-11-27 07:09:01+00:00,208.6115,5.89,12.73,47.84626,-54.09684
2019-11-27 07:19:01+00:00,215.8064,5.84,12.73,47.84626,-54.09684
2019-11-27 07:29:01+00:00,218.4248,5.8,12.73,47.84626,-54.09684
2019-11-27 07:39:01+00:00,222.6698,5.8,12.73,47.84626,-54.09684
2019-11-27 07:49:01+00:00,232.2263,5.8,12.73,47.84626,-54.09684
2019-11-27 07:59:01+00:00,239.5831,5.8,12.73,47.84626,-54.09684
2019-11-27 08:09:01+00:00,242.0097,5.8,12.73,47.84626,-54.09684
2019-11-27 08:19:01+00:00,247.4481,5.8,12.73,47.84626,-54.09684
2019-11-27 08:29:01+00:00,257.8964,5.8,12.73,47.84626,-54.09684
2019-11-27 08:39:01+00:00,264.8531,5.7,12.73,47.84626,-54.09684
2019-11-27 08:49:01+00:00,268.6264,5.7,12.73,47.84626,-54.09684
2019-11-27 08:59:01+00:00,276.033,5.7,12.73,47.84626,-54.09684
2019-11-27 09:09:01+00:00,289.0663,5.73,12.73,47.84626,-54.09684
2019-11-27 09:19:01+00:00,300.4563,5.9,12.73,47.84626,-54.09684
2019-11-27 09:29:01+00:00,307.6147,5.98,12.73,47.84626,-54.09684
2019-11-27 09:39:01+00:00,315.7263,5.99,12.73,47.84626,-54.09684
2019-11-27 09:49:01+00:00,327.1346,5.99,12.73,47.84626,-54.09684
2019-11-27 09:59:01+00:00,334.9313,5.99,12.73,47.84626,-54.09684
2019-11-27 10:09:01+00:00,341.8880000000001,6.0,12.73,47.84626,-54.09684
2019-11-27 10:19:01+00:00,352.0596,6.0,12.73,47.84626,-54.09684
2019-11-27 10:29:01+00:00,360.9579,5.99,12.73,47.84626,-54.09684
2019-11-27 10:39:01+00:00,369.3829,5.99,12.73,47.84626,-54.09684
2019-11-27 10:49:01+00:00,377.6662,5.98,12.73,47.84626,-54.09684
2019-11-27 10:59:01+00:00,385.3947,5.98,12.73,47.84626,-54.09684
2019-11-27 11:09:01+00:00,392.2279,5.99,12.73,47.84626,-54.09684
2019-11-27 11:19:01+00:00,398.6329,5.99,12.73,47.84626,-54.09684
2019-11-27 11:29:01+00:00,404.0263,5.95,12.73,47.84626,-54.09684
2019-11-27 11:39:01+00:00,405.9462,5.9,12.73,47.84626,-54.09684
2019-11-27 11:49:01+00:00,407.2029,5.9,12.73,47.84626,-54.09684
2019-11-27 11:59:01+00:00,409.0596,5.9,12.73,47.84626,-54.09684
2019-11-27 12:09:01+00:00,408.2579,5.9,12.73,47.84626,-54.09684
2019-11-27 12:19:01+00:00,408.4879,5.9,12.73,47.84626,-54.09684
2019-11-27 12:29:01+00:00,409.3063,5.9,12.73,47.84626,-54.09684
2019-11-27 12:39:01+00:00,407.9379,5.89,12.73,47.84626,-54.09684
2019-11-27 12:49:01+00:00,404.3695,5.8,12.73,47.84626,-54.09684
2019-11-27 12:59:01+00:00,399.9662,5.8,12.73,47.84626,-54.09684
2019-11-27 13:09:01+00:00,396.663,5.8,12.73,47.84626,-54.09684
2019-11-27 13:19:01+00:00,392.1562,5.81,12.73,47.84626,-54.09684
2019-11-27 13:29:01+00:00,388.8479,5.81,12.73,47.84626,-54.09684
2019-11-27 13:39:01+00:00,384.9529,5.8,12.73,47.84626,-54.09684
2019-11-27 13:49:01+00:00,378.0229,5.8,12.73,47.84626,-54.09684
2019-11-27 13:59:01+00:00,372.23800000000006,5.8,12.73,47.84626,-54.09684
2019-11-27 14:09:01+00:00,367.4246,5.8,12.73,47.84626,-54.09684
2019-11-27 14:19:01+00:00,359.3097,5.8,12.97,47.84626,-54.09684
2019-11-27 14:29:01+00:00,349.3696,5.79,12.97,47.84626,-54.09684
2019-11-27 14:39:01+00:00,341.1979,5.77,12.97,47.84626,-54.09684
2019-11-27 14:49:01+00:00,331.3297,5.77,12.97,47.84626,-54.09684
2019-11-27 14:59:01+00:00,318.418,5.77,12.97,47.84626,-54.09684
2019-11-27 15:09:01+00:00,307.1497,5.79,12.97,47.84626,-54.09684
2019-11-27 15:19:01+00:00,296.8013,5.8,14.72,47.84626,-54.09684
2019-11-27 15:29:01+00:00,285.0797,5.8,14.72,47.84626,-54.09684
2019-11-27 15:39:01+00:00,272.6864,5.72,14.72,47.84626,-54.09684
2019-11-27 15:49:01+00:00,264.3281,5.77,14.72,47.84626,-54.09684
2019-11-27 15:59:01+00:00,255.1931,5.8,14.72,47.84626,-54.09684
2019-11-27 16:09:01+00:00,244.5481,5.8,14.72,47.84626,-54.09684
2019-11-27 16:19:01+00:00,233.0514,5.8,14.56,47.84626,-54.09684
2019-11-27 16:29:01+00:00,224.6165,5.8,14.56,47.84626,-54.09684
2019-11-27 16:39:01+00:00,215.5898,5.8,14.56,47.84626,-54.09684
2019-11-27 16:49:01+00:00,208.4031,5.8,14.56,47.84626,-54.09684
2019-11-27 16:59:01+00:00,201.8181,5.8,14.56,47.84626,-54.09684
2019-11-27 17:09:01+00:00,197.1347,5.85,14.56,47.84626,-54.09684
2019-11-27 17:19:01+00:00,193.3998,5.8,14.16,47.84626,-54.09684
2019-11-27 17:29:01+00:00,191.1048,5.8,14.16,47.84626,-54.09684
2019-11-27 17:39:01+00:00,189.4065,5.87,14.16,47.84626,-54.09684
2019-11-27 17:49:01+00:00,187.0031,5.9,14.16,47.84626,-54.09684
2019-11-27 17:59:01+00:00,185.7948,5.9,14.16,47.84626,-54.09684
2019-11-27 18:09:01+00:00,185.7198,5.9,14.16,47.84626,-54.09684
2019-11-27 18:19:01+00:00,185.7032,5.9,13.76,47.84626,-54.09684
2019-11-27 18:29:01+00:00,186.8431,5.9,13.76,47.84626,-54.09684
2019-11-27 18:39:01+00:00,189.7648,5.9,13.76,47.84626,-54.09684
2019-11-27 18:49:01+00:00,191.9214,5.9,13.76,47.84626,-54.09684
2019-11-27 18:59:01+00:00,193.6381,5.9,13.76,47.84626,-54.09684
2019-11-27 19:09:01+00:00,200.1165,5.9,13.76,47.84626,-54.09684
2019-11-27 19:19:01+00:00,205.2247,5.9,13.37,47.84626,-54.09684
2019-11-27 19:29:01+00:00,207.2248,5.9,13.37,47.84626,-54.09684
2019-11-27 19:39:01+00:00,209.6298,5.9,13.37,47.84626,-54.09684
2019-11-27 19:49:01+00:00,211.7281,5.9,13.37,47.84626,-54.09684
2019-11-27 19:59:01+00:00,216.5931,5.9,13.37,47.84626,-54.09684
2019-11-27 20:09:01+00:00,219.7914,5.84,13.37,47.84626,-54.09684
2019-11-27 20:19:01+00:00,220.3881,5.8,12.97,47.84626,-54.09684
2019-11-27 20:29:01+00:00,222.6031,5.8,12.97,47.84626,-54.09684
2019-11-27 20:39:01+00:00,227.7698,5.73,12.97,47.84626,-54.09684
2019-11-27 20:49:01+00:00,236.1315,5.7,12.97,47.84626,-54.09684
2019-11-27 20:59:01+00:00,244.6981,5.7,12.97,47.84626,-54.09684
2019-11-27 21:09:01+00:00,250.6314,5.7,12.97,47.84626,-54.09684
2019-11-27 21:19:01+00:00,256.2147,5.7,12.81,47.84626,-54.09684
2019-11-27 21:29:01+00:00,264.3064,5.8,12.81,47.84626,-54.09684
2019-11-27 21:39:01+00:00,270.7264,5.91,12.81,47.84626,-54.09684
2019-11-27 21:49:01+00:00,277.623,5.9,12.81,47.84626,-54.09684
2019-11-27 21:59:01+00:00,287.2131,5.98,12.81,47.84626,-54.09684
2019-11-27 22:09:01+00:00,296.3147,5.98,12.81,47.84626,-54.09684
2019-11-27 22:19:01+00:00,303.9464,5.9,12.81,47.84626,-54.09684
2019-11-27 22:29:01+00:00,314.9347,5.84,12.81,47.84626,-54.09684
2019-11-27 22:39:01+00:00,325.2863,5.9,12.81,47.84626,-54.09684
2019-11-27 22:49:01+00:00,330.843,5.9,12.81,47.84626,-54.09684
2019-11-27 22:59:01+00:00,337.3779,5.9,12.81,47.84626,-54.09684
2019-11-27 23:09:01+00:00,341.103,5.9,12.81,47.84626,-54.09684
2019-11-27 23:19:01+00:00,340.7079,5.9,12.81,47.84626,-54.09684
2019-11-27 23:29:01+00:00,343.3747,5.93,12.81,47.84626,-54.09684
2019-11-27 23:39:01+00:00,347.3513,5.97,12.81,47.84626,-54.09684
2019-11-27 23:49:01+00:00,347.168,5.97,12.81,47.84626,-54.09684
2019-11-27 23:59:01+00:00,345.2546,5.92,12.81,47.84626,-54.09684
